Regional Weather Roundup
Issued by NWS

Home | Current Version | Previous Version | Text Only | Print | Product List | Glossary On
Versions: 1 2 3 4 5 6 7 8 9 10 11 12 13 14 15 16 17 18 19 20 21 22 23 24 25 26 27 28 29 30 31 32 33 34 35 36 37 38 39 40 41 42 43 44 45 46 47 48 49 50
000
ASUS45 KTFX 220810
RWRMT
MONTANA REGIONAL WEATHER ROUNDUP
NATIONAL WEATHER SERVICE GREAT FALLS MT
200 AM MDT TUE AUG 22 2017

NOTE: "FAIR" INDICATES FEW OR NO CLOUDS BELOW 12000 FEET WITH NO
SIGNIFICANT WEATHER AND/OR OBSTRUCTIONS TO VISIBILITY.

MTZ001>007-043-220900-
WEST OF THE DIVIDE

CITY           SKY/WX    TMP DP  RH WIND       PRES   REMARKS
KALISPELL      CLEAR     49  44  83 CALM      30.12S
MISSOULA       PTCLDY    61  40  45 E7        30.15S HAZE
BUTTE          CLEAR     49  34  56 S3        30.28R
MULLAN PASS    CLEAR     60  34  37 VRB3      30.27F
ANACONDA         N/A     52  36  54 CALM      30.25R
DEER LODGE       N/A     48  36  61 CALM      30.25S
EUREKA           N/A     54  37  54 MISG      30.13R
HAMILTON         N/A     55  41  58 S6        30.17F
LIBBY            N/A     55  41  58 CALM      30.11R
PLAINS           N/A     54  39  56 CALM      30.12R
RONAN            N/A     50  42  73 CALM      30.16S
$$

MTZ008-052>055-220900-
SOUTHWEST MONTANA

CITY           SKY/WX    TMP DP  RH WIND       PRES   REMARKS
BOZEMAN        CLEAR     54  37  52 S7        30.21S
DILLON         CLEAR     54  31  41 S8        30.24R
W YELLOWSTONE  CLOUDY    39  34  81 CALM      30.35R
ENNIS          CLOUDY    48  32  53 N7        30.30R
THREE FORKS      N/A     47  37  68 CALM      30.17S
TWIN BRIDGES     N/A     51  35  54 CALM      30.20R
$$

MTZ009-010-012-014-046-048-049-054-220900-
EAST SLOPES AND CENTRAL MONTANA

CITY           SKY/WX    TMP DP  RH WIND       PRES   REMARKS
CUT BANK       PTCLDY    59  36  42 S7        30.17S
GREAT FALLS    CLOUDY    58  35  42 E5        30.15F
MALMSTROM AFB  CLEAR     60  35  40 SE5       30.15F
HELENA         CLOUDY    61  37  41 CALM      30.18R
CHOTEAU          N/A     54  37  54 CALM      30.19S
$$

MTZ011-013-016-021-045-047-050-051-220900-
NORTH CENTRAL MONTANA

CITY           SKY/WX    TMP DP  RH WIND       PRES   REMARKS
HAVRE          PTCLDY    58  38  47 CALM      30.13S
LEWISTOWN      CLOUDY    54  35  48 E8        30.21S
N BAR RANCH      N/A     52  32  46 W6        30.26F
CHINOOK          N/A     57  37  47 E8        30.14S
JUDITH GAP       N/A     58  32  37 SE13      30.23S
WINIFRED         N/A     56  34  43 SE15      30.18S
$$

MTZ017>020-022>027-061-062-220900-
NORTHEAST MONTANA

CITY           SKY/WX    TMP DP  RH WIND       PRES   REMARKS
JORDAN           N/A     48  31  51 NW6       30.18S
SIDNEY         CLEAR     48  34  58 CALM      30.19S
WOLF POINT     PTCLDY    49  30  48 CALM      30.19R
MALTA          PTCLDY    52  39  62 E6        30.16F
PLENTYWOOD       N/A     52  32  46 CALM      30.17S
POPLAR           N/A     50  34  53 N6        30.18F
SCOBEY           N/A     41  28  60 CALM      30.16S
$$

MTZ028>42-056>058-220900-
SOUTHCENTRAL AND SOUTHEAST MONTANA

CITY           SKY/WX    TMP DP  RH WIND       PRES   REMARKS
BAKER          PTCLDY    50  35  56 CALM      30.21S
BILLINGS       PTCLDY    62  33  33 N8        30.17F
LIVINGSTON     CLOUDY    51  35  54 NW7       30.23R
MILES CITY     MOCLDY    59  35  40 CALM      30.18S
BIG TIMBER     PTCLDY    57  34  41 CALM      30.24S
EKALAKA          N/A     58  35  42 SE3       30.18S
LAUREL           N/A     62  32  32 MISG      30.15F
$$

REGIONAL REPORTS...DAKOTAS

CITY           SKY/WX    TMP DP  RH WIND       PRES   REMARKS
WILLISTON      CLEAR     43  37  79 CALM      30.17F
MINOT          CLEAR     51  41  68 SW7       30.11F
DICKINSON      CLEAR     45  38  76 CALM      30.18R
BEACH            N/A     43  37  81 S6        30.23S
CROSBY           N/A     43  41  93 S5        30.16S
TIOGA            N/A     43  41  93 SW6       30.18S
WATFORD CITY     N/A     41  37  87 SW5       30.18S
BISMARCK       CLEAR     51  45  79 NW5       30.14S
GRAND FORKS    CLEAR     50  47  89 W6        29.99S
FARGO          PTCLDY    50  49  96 W8        30.02R
BUFFALO SD       N/A     54  41  61 W3        30.15S
RAPID CITY     CLEAR     54  41  61 NW6       30.22S
$$

REGIONAL REPORTS...WYOMING/IDAHO/WASHINGTON

CITY           SKY/WX    TMP DP  RH WIND       PRES   REMARKS
GILLETTE       CLEAR     53  35  50 S5        30.24F
SHERIDAN       CLEAR     49  39  68 CALM      30.20F
BUFFALO WY     CLEAR     61  31  32 SW5       30.27F
CODY           CLEAR     59  35  40 SW6       30.26F
YELLOWSTONE LA   N/A     39  34  82 NW3       30.43S
IDAHO FALLS    CLEAR     48  42  80 N5        30.22R
SALMON         CLEAR     51  38  60 CALM      30.19R
BOISE          CLEAR     66  39  37 SE10      30.06S
SPOKANE        CLEAR     64  42  44 CALM      30.07S
$$

REGIONAL REPORTS...ALBERTA

CITY           SKY/WX    TMP DP  RH WIND       PRES   REMARKS
EDMONTON       CLOUDY    61  54  77 W2        30.08S
CALGARY        MOCLDY    57  43  58 SW2       30.15S
LETHBRIDGE     CLEAR     50  37  62 W8G28     30.11S
MEDICINE HAT   CLOUDY    55  45  67 CALM      30.11S
$$

REGIONAL REPORTS...SASKATCHEWAN

CITY           SKY/WX    TMP DP  RH WIND       PRES   REMARKS
SWIFT CURRENT  MOCLDY    52  34  50 S9        30.15S
SASKATOON      PTCLDY    46  41  81 S6        30.13R
$$



USA.gov is the U.S. government's official web portal to all federal, state and local government web resources and services.